timestamp,gas_concentrations,,corrected_fluxes_and_quality_flags,,,,,,,,,,storage_terms,,,turbulence,,,footprint,,
ISOdate,CO2_1_1_1,H2O_1_1_1,Tau_1_1_1,QcTau_1_1_1,H_1_1_1,QcH_1_1_1,LE_1_1_1, QcLE_1_1_1,Fc_1_1_1, QcFc_1_1_1,E_1_1_1, QcE_1_1_1,Sa_1_1_1,Sw_1_1_1,Sc_1_1_1,ustar_1_1_1,MO_length_1_1_1,ZL_1_1_1,Fetchmax_1_1_1,Fetch70_1_1_1,Fetch90_1_1_1
yyyymmddHHMM,[µmol+1mol_a-1],[mmol+1mol_a-1],[kg+1m-1s-2],[#],[W+1m-2],[#],[W+1m-2],[#],[µmol+1s-1m-2],[#],[mmol+1s-1m-2],[#],[W+1m-2],[W+1m-2],[µmol+1s-1m-2],[m+1s-1],[m],[#],[m],[m],[m]
201301040030,-9999.,2.1566944611303214,1.1947830970671673,0,-26.358059847693735,0,-0.28322024328354151,0,-9999.,-9999.,-6.22245805184410816E-003,0,-9999.,-9999.,-9999.,0.97244687103279648,2933.4236502572417,7.36340964528114667E-003,107.38291942271999,196.33022473030962,294.13845269705024
201301040100,-9999.,2.1869669521193233,1.2372113505891891,0,-19.866240005035717,0,-0.18866864490789903,0,-9999.,-9999.,-4.14543281957303281E-003,0,1.9683987571587216,1.1690041177734227,-9999.,0.98979794312614611,4103.6199092194747,5.26364538574148992E-003,106.39309633604552,194.52051243998673,291.42717391339067
201301040130,-9999.,2.2015132937114692,1.0707358423743245,0,-28.037844421784602,0,-0.30260941867446761,0,-9999.,-9999.,-6.64893649480187247E-003,0,-2.47139116641502121E-002,0.56185744481107081,-9999.,0.92069319002174999,2340.5474232031820,9.22861027547097583E-003,102.76070080718000,187.87933492008543,281.47747980758732
201301040200,-9999.,2.1853743067685851,1.1163141182093421,0,-35.042911983877772,0,-0.41320198227253818,0,-9999.,-9999.,-9.07627383417634881E-003,0,-7.5644727339856770,-0.62440206346999849,-9999.,0.93944220468013928,1989.6919944236693,1.08559516048395317E-002,104.84176037429785,191.68417552868377,287.17782437200344
201301040230,-9999.,2.1881989093769638,1.4623759035385726,0,-52.545787250807294,0,-0.65397082016462582,0,-9999.,-9999.,-1.43627983367296871E-002,0,-3.9215755842885121,0.10938754339988678,-9999.,1.0747999205562782,1987.4156037433822,1.08683860382878545E-002,110.20686101854228,201.49329061745064,301.87366622977396
201301040300,-9999.,2.1912828050202537,1.0362103006238579,0,-35.766661264779636,0,-0.45684823163684102,0,-9999.,-9999.,-1.00323437199021735E-002,0,-3.0559044649592795,0.11949002738037594,-9999.,0.90455858970073233,1740.4095961285757,1.24108715833604645E-002,103.46371009450924,189.16466011063565,283.40313115994689
201301040330,-9999.,2.2008678115906974,1.0881091880122846,0,-40.370557225097528,0,-0.51407852600838599,0,-9999.,-9999.,-1.12885014999022839E-002,0,-1.4375272491004580,0.37151498707793323,-9999.,0.92679913420139914,1658.5755638165756,1.30232233437081908E-002,108.59530914784226,198.54685981970363,297.45937598476087
201301040400,-9999.,2.2016954746523982,1.1524380290802403,0,-39.263483728881369,0,-0.53223379416987715,0,-9999.,-9999.,-1.16844612292824803E-002,0,-6.1263003949898565,3.21108654972225641E-002,-9999.,0.95345735896114492,1856.4738334946626,1.16349606497494987E-002,112.03402772751299,204.83393410638206,306.87855892113896
201301040430,-9999.,2.2237471506309281,1.0134783103964238,0,-38.823880414955603,0,-0.56998320036364425,0,-9999.,-9999.,-1.25117820243613870E-002,0,-2.9940922259695832,0.85598184169846159,-9999.,0.89395125003724696,1547.3894888788680,1.39589936181160681E-002,112.43205655249304,205.56165774322835,307.96882153774357
201301040500,-9999.,2.2469561472169564,1.0093328146393694,0,-40.636503067456523,0,-0.59119195621603915,0,-9999.,-9999.,-1.29775209221026488E-002,0,0.37215150688066800,0.90078728856531842,-9999.,0.89217734157340522,1469.5262545538044,1.46986145589882364E-002,116.23984086881008,212.52350190397578,318.39893270464688
201301040530,-9999.,2.2509086619963368,0.92870185988951015,0,-32.437696791538798,0,-0.45845307811179059,2,-9999.,-9999.,-1.00631251065988955E-002,2,-1.5383015570973382,0.15342135365090190,-9999.,0.85577951187330092,1624.4913455328383,1.32964697284460656E-002,113.85283768377606,208.15929878611436,311.86056117216003
201301040600,-9999.,2.2519818253462787,1.0774392215954163,0,-36.571814066782977,0,-0.57186050718650705,1,-9999.,-9999.,-1.25519594645448502E-002,1,-1.0089522404452438,4.16559444612215404E-002,-9999.,0.92178377851739679,1800.3688333445552,1.19975416147776563E-002,113.17117119520056,206.91299503862254,309.99337105213982
201301040630,-9999.,2.2510252139422597,0.98955766376252075,0,-29.259608287989867,0,-0.51486190070605020,1,-9999.,-9999.,-1.13006553372762032E-002,1,-0.52120746279871644,-3.71462244934300523E-002,-9999.,0.88322923122484109,1979.9826225193394,1.09091866536263123E-002,115.72177551711009,211.57631321259882,316.97987144458631
201301040700,-9999.,2.2443850377520307,0.54725044378668075,0,-29.779605304313090,0,-0.47097390613544748,0,-9999.,-9999.,-1.03372100720587473E-002,0,-0.38907681189268339,-0.25800790726287820,-9999.,0.65661596980053261,799.64489241096624,2.70119902033951649E-002,107.94675837832865,197.36110216837383,295.68289494973465
201301040730,-9999.,2.2287979193596894,0.57693316767179637,0,-35.218236411405151,0,-0.61072529098777006,1,-9999.,-9999.,-1.34035456906449937E-002,1,-1.9958401933011414,-0.60593281555301082,-9999.,0.67405229310166204,731.51202480786424,2.95278809745791460E-002,108.54100100596881,198.44756721566549,297.31061757043034
201301040800,-9999.,2.2257821436508398,0.46309404684578998,0,-30.227566470411485,0,-0.55081531414249962,1,-9999.,-9999.,-1.20890643915680714E-002,1,0.78678579364792911,-0.11723818404806502,-9999.,0.60388332891295615,612.94156062433876,3.52399011383701319E-002,109.04384578459205,199.36692784510535,298.68798732277230
201301040830,-9999.,2.2634409719739788,0.49443411941585236,0,-36.113935668577277,0,-0.63768156190624536,1,-9999.,-9999.,-1.39999557941691850E-002,1,8.2943163502706909,1.4613153370741787,-9999.,0.62445931038120717,567.19450210797936,3.80821744916841828E-002,107.24881668680361,196.08504215918049,293.77112452738476
201301040900,-9999.,2.3327033388530460,0.61325059298218476,0,-28.278735745705838,1,-0.57173941700411102,1,-9999.,-9999.,-1.25584722380210848E-002,1,13.124472504770248,2.6813736319056605,-9999.,0.69610578074661156,1003.5109903924575,2.15244279402984698E-002,113.10335223144395,206.78900034312636,309.80760440349474
201301040930,-9999.,2.4349422459930707,0.52506026016268803,0,6.0480163049507931,1,0.18129759991696257,0,-9999.,-9999.,3.98546061277085719E-003,0,21.068599599041704,3.9430261956240673,-9999.,0.64508746707728959,-3734.9927828657683,-5.78314370487935728E-003,106.91969689938716,195.48330622041078,292.86961444046329
201301041000,-9999.,2.5242542944152153,0.55172120882491649,0,26.845203506452432,0,0.48802534698504346,0,-9999.,-9999.,1.07371769332958306E-002,0,21.796412895650981,3.4304482460876331,-9999.,0.66234902084857061,-910.93032133636541,-2.37120221976057123E-002,104.80828477294486,191.62297145291507,287.08612951365910
201301041030,-9999.,2.6167989759366788,0.58636394034195549,0,32.988896200904037,1,0.54343096389970591,2,-9999.,-9999.,1.19678095525860700E-002,2,25.377371365085718,3.5379455870189944,-9999.,0.68411258854360923,-816.91117542943982,-2.64410631775788309E-002,106.81915949176853,195.29949177452235,292.59422690514486
201301041100,-9999.,2.7548452937436849,0.57390593972992676,0,52.049947392444501,0,0.86166381061533492,1,-9999.,-9999.,1.89980879735826454E-002,1,29.958654346265380,5.2461897075329942,-9999.,0.67844562308724909,-504.95064478588802,-4.27764579034431228E-002,113.15522515671877,206.88384059454972,309.94969238228344
201301041130,-9999.,2.9509529709077560,0.55592043489341236,0,-12.364019687356397,2,-0.42149880350777286,2,-9999.,-9999.,-9.30547216899815267E-003,2,33.817431534353283,7.4040945414074990,-9999.,0.66950374812350399,2042.8671066159882,1.05733750032230081E-002,110.78002749326977,202.54122173532375,303.44365800239939
201301041200,-9999.,3.1776058679666690,0.45411066386820065,0,46.467442213020071,0,0.89269095875006610,0,-9999.,-9999.,1.97393524626180497E-002,0,40.603695139000109,8.4901899638340996,-9999.,0.60703249611678023,-405.17827698718662,-5.33098668581461974E-002,107.28082220968753,196.14355846265028,293.85879261304905
201301041230,-9999.,3.3187906881558287,0.67075823761653908,0,95.396156587497984,0,2.0016836477088451,0,-9999.,-9999.,4.43126351960838882E-002,0,29.278180458694219,5.2573644610829495,-9999.,0.73954319625174192,-356.82427716924411,-6.05339977743582155E-002,107.74652423220864,196.99501028786099,295.13442260205142
201301041300,-9999.,3.3817035759742393,0.53865653214554476,0,60.252646148057337,0,1.2708487705233020,0,-9999.,-9999.,2.81548783568620065E-002,0,19.096777205398134,2.3339980809631573,-9999.,0.66372389959340017,-408.39537391456736,-5.28899232940834643E-002,114.93464308985726,210.13718409256890,314.82379377912071
201301041330,-9999.,3.4155630810711410,0.41171479006901357,0,92.101388189959778,1,1.7323076874824046,2,-9999.,-9999.,3.84188826686047216E-002,2,26.672765399409482,1.2496884357601123,-9999.,0.58146344314070586,-179.64289435908424,-0.12023854367890686,105.34043523081567,192.59591221058650,288.54377206166970
201301041400,-9999.,3.3263271508485035,1.2376875982892142,0,85.665398284352136,0,2.0147375961081355,0,-9999.,-9999.,4.47317779937275589E-002,0,27.576601293890260,-3.2764143137680510,-9999.,1.0102164149893365,-1012.9625182687819,-2.13235925421167531E-002,124.60342178690870,227.81479524958220,341.30807657483678
201301041430,-9999.,3.3128630943398614,1.1206018448442565,0,43.209228058147168,0,1.3325695802845565,0,-9999.,-9999.,2.95993646951695742E-002,0,11.215013666836921,-0.49339307089855156,-9999.,0.96196001020599053,-1734.3068350877818,-1.24545435461578622E-002,130.21739118794059,238.07892179837552,356.68560851367067
201301041500,-9999.,3.1387098415466665,1.1606731519548132,0,26.721355408282591,0,0.82583592886052393,0,-9999.,-9999.,1.83465723305700629E-002,0,3.9503344533785669,-6.3787772970093508,-9999.,0.97913664514285970,-2957.8672535842661,-7.30255895487726386E-003,120.56312164305551,220.42783799897904,330.24106853358211
201301041530,-9999.,3.1334748252702460,0.93546508999054512,0,3.3943284265648090,0,0.31265821641597125,0,-9999.,-9999.,6.94466146825215361E-003,0,-4.6032972877638114,-0.19199394794304442,-9999.,0.87853655327409474,-16825.080679517923,-1.28379770721069077E-003,115.35975143149055,210.91441772242618,315.98823138715773
201301041600,-9999.,3.1661769183861184,0.78187001580413151,0,-22.778612264910979,0,-0.21685780540920571,0,-9999.,-9999.,-4.81485898997024986E-003,0,-9.9711631174746884,1.2023674292388855,-9999.,0.80233603148624111,1910.5314096635577,1.13057549803924628E-002,117.20985978907930,214.29700586189495,321.05596480834362
201301041630,-9999.,3.1786454990055208,0.73001858380921725,0,-46.599411275243170,0,-0.64640993455161688,0,-9999.,-9999.,-1.43457243165860445E-002,0,-11.232939490817184,0.45967776150213424,-9999.,0.77440226743845764,840.03112265612890,2.57133330152126693E-002,118.89820953342637,217.38384766609428,325.68061632725772
201301041700,-9999.,3.2138385635908313,0.72729991765268287,0,-44.804450257816157,0,-0.65681625219118267,0,-9999.,-9999.,-1.45679951379882842E-002,0,-15.016616445252907,1.3018773217089812,-9999.,0.77188100057684172,865.48531541530701,2.49570958805177927E-002,119.63276268978879,218.72684510963819,327.69267122386231
201301041730,-9999.,3.2504434956804489,0.75295066584307291,0,-34.746221686367115,0,-0.53852811025648895,0,-9999.,-9999.,-1.19378998997493480E-002,0,-13.770124000315322,1.3584056891065546,-9999.,0.78434939817678184,1171.4118417772329,1.84392877292661600E-002,114.47864567906544,209.30347539272648,313.57474622514076
201301041800,-9999.,3.2750183262028560,0.68732350819007237,0,-53.949053403142578,0,-0.90079377753032919,0,-9999.,-9999.,-1.99605775604480527E-002,0,-10.037277111137017,0.91426193315872040,-9999.,0.74859984175428540,656.19317530559465,3.29171360094391435E-002,120.42281697536464,220.17131631856148,329.85675231194625
201301041830,-9999.,3.2833214878931343,0.46291183252168433,0,-51.310065043941478,0,-0.89096285913002315,0,-9999.,-9999.,-1.97357503032700443E-002,0,-8.9974311223084928,0.30958935882517963,-9999.,0.61378261902037889,380.41345910023233,5.67803254151130754E-002,119.73100641604415,218.90646597446238,327.96177601057593
201301041900,-9999.,3.2924337301823812,0.43977480370965388,0,-55.396225570765566,0,-0.97515738252459183,0,-9999.,-9999.,-2.15931676427750935E-002,0,-8.9407175048063650,0.34046545775916781,-9999.,0.59772983091201781,325.50727433964471,6.63579640234456675E-002,120.37872297758466,220.09069842756037,329.73597202072341
201301041930,-9999.,3.3101888826924992,0.30331314676201204,0,-38.487486717829277,0,-0.70488267643375568,0,-9999.,-9999.,-1.56029783106947373E-002,0,-8.8756236746875672,0.66476787652369340,-9999.,0.49597914322835873,267.73661062804797,8.06763032867690855E-002,119.03943784667952,217.64205806518135,326.06746255718531
201301042000,-9999.,3.3300013685470837,0.18789652747831734,0,-24.155347246667638,0,-0.45955122410585519,2,-9999.,-9999.,-1.01688608200111771E-002,2,-8.9695010764932626,0.74316826929483137,-9999.,0.39007998094208696,207.54992133872440,0.10407134756147894,106.35551151369961,194.45179539767412,291.32422326212179
201301042030,-9999.,3.4168026097602486,0.23908690344428415,0,-30.285771762233853,0,-0.53957040441831816,2,-9999.,-9999.,-1.19378213393554634E-002,2,-3.6211498783902201,3.2587971691291808,-9999.,0.43986400425641003,237.38566631559971,9.09911720250337896E-002,104.68761571304653,191.40234992599815,286.75559826383170
201301042100,-9999.,3.6022198182170047,0.12513412107255298,0,-13.931097977346356,0,-0.33990474416069510,1,-9999.,-9999.,-7.52043453560144806E-003,1,0.51624940052662871,6.9620820464960973,-9999.,0.31820750567653450,195.41987084079457,0.11053123670108847,92.905797687620620,169.86142895738763,254.48337338312348
201301042130,-9999.,3.8165851263939623,0.30570345692723672,0,-0.47916219006322402,2,-5.11910075296554551E-002,0,-9999.,-9999.,-1.13251463388659430E-003,0,-2.0986306051939931,8.0546698245108423,-9999.,0.49722855090282103,21682.784666982709,9.96182009448778752E-004,115.01164353578457,210.27796546575667,315.03470992988099
201301042200,-9999.,3.8367278908988669,0.21289930453319336,0,-4.2276101999601776,1,-7.71281294234276993E-002,1,-9999.,-9999.,-1.70600461224932297E-003,1,-4.8885733908053997,0.75780725239926294,-9999.,0.41472747835762275,1426.3379345211340,1.51436763176685703E-002,116.67199974180336,213.31362615381079,319.58268281038903
201301042230,-9999.,3.7547986230239738,0.15211982381125805,0,-2.6713789542585529,0,-1.19884626958117989E-002,1,-9999.,-9999.,-2.65122716514023583E-004,1,-4.9661656197377120,-3.0859969237491414,-9999.,0.35038497288277237,1361.4338130866101,1.58656262187502166E-002,98.990373832366643,180.98597472601310,271.14997010217593
201301042300,-9999.,3.7009633608191201,7.45650652681543319E-002,0,-4.7154429174403170,0,-9.68756900317791908E-002,2,-9999.,-9999.,-2.14197929859258774E-003,2,-4.9141997187523296,-2.0301225006391168,-9999.,0.24519286789616171,264.33570533742363,8.17142730393825290E-002,87.344640055839392,159.69385916623446,239.25050106217941
201301042330,-9999.,3.6527905687200897,9.68051999564866344E-002,0,-5.5517542596899956,1,-0.10498729319779593,1,-9999.,-9999.,-2.32091819973011563E-003,1,-4.5859600254316568,-1.8183964543838651,-9999.,0.27925986542072434,331.72723695022370,6.51137368115513593E-002,103.79548488086024,189.77125023422622,284.31191370027830
201301050000,-9999.,3.6207017349031703,5.52387823993944482E-002,0,-4.3180316537784620,0,-6.61296559000488920E-002,1,-9999.,-9999.,-1.46168765500701145E-003,1,-3.8419892515675529,-1.2119157420918025,-9999.,0.21090900028828055,183.70427232661933,0.11758028121194704,117.64334319345978,215.08955177754336,322.24334301075959
